Location: Kvarnån
(66.4000°N, 22.2667°E)
Time: 21:34:27
(UTC+00:00)

YAOGAN 1 - Pass Details

Date: 15 October 2024
Orbit: 609 x 611 km, 97.8° (Epoch: 05 November)

Event Time Altitude Azimuth Distance (km) Brightness Sun altitude
Rises 17:24:22 0° 184° (S) 2,874 5.9 -14.9°
Reaches altitude 10° 17:26:40 10° 192° (SSW) 1,973 5.1 -15.1°
Maximum altitude 17:30:42 39° 262° (W) 925 4.0 -15.5°
Drops below altitude 10° 17:34:46 10° 333° (NNW) 1,984 5.7 -15.9°
Sets 17:37:05 0° 341° (NNW) 2,892 6.5 -16.1°
